Location: ????????
(60.4333°N, 46.4710°E)
Time: 04:30:30
(UTC+00:00)

Cosmos 2181 Rocket - Pass Details

Date: 25 November 2020
Orbit: 951 x 1015 km, 82.9° (Epoch: 19 January)

Event Time Altitude Azimuth Distance (km) Brightness Sun altitude
Rises 14:57:58 0° 179° (S) 3,741 7.1 -20.1°
Reaches altitude 10° 15:00:31 10° 177° (S) 2,790 6.4 -20.4°
Maximum altitude 15:06:53 68° 97° (E) 1,083 4.0 -21.2°
Drops below altitude 10° 15:13:12 10° 16° (NNE) 2,772 6.2 -22.0°
Sets 15:15:43 0° 14° (NNE) 3,715 6.9 -22.3°
